Location: San Martino di Castrozza
(46.2667°N, 11.8000°E)
Time: 03:28:07
(UTC+00:00)

Cosmos 1842 - Pass Details

Date: 23 April 2021
Orbit: 520 x 536 km, 82.5° (Epoch: 14 May)

Event Time Altitude Azimuth Distance (km) Brightness Sun altitude
Exits shadow 02:56:19 14° 199° (SSW) 1,536 5.1 -12.5°
Maximum altitude 02:59:36 65° 280° (W) 579 3.2 -12.1°
Drops below altitude 10° 03:03:27 10° 3° (N) 1,768 6.4 -11.5°
Sets 03:05:37 0° 7° (N) 2,660 7.4 -11.2°
